Torna al catalogo

ONEWEB-0366

AttivoComunicazioniPO
NORAD 49292·PAYLOAD·🇬🇧 United Kingdom

Lanciato Oct 14, 2021 da Vostochny Cosmodrome

Loading…

Prossimi Passaggi (prossime 24 ore)

TLE

AggiornatoSource: CelesTrak SupGP

Epoca: Sep 14, 2026, 06:57 UTC

1 49292C 21090P   26257.28977269 -.00000091  00000+0 -24542-3 0  2578
2 49292  87.8897 271.9379 0001935  93.4353  18.4138 13.14502848    10

Traccia ONEWEB-0366 in tempo reale con AllMySat

Download on the App Store